CAPE
1 2 3 5 4 4 4 3 3 3 3 2 2 2 3 3 3 3 1 0 0 1 1 1 1 0 0 0 0 0 119 0 0 0 0 0 0 0 0 0 0 0 0 0 0 0 0
6 5 2 2 2 2 1 0 1 1 1 3 3 2 2 2 2 1 0 0 0 0 0 0 0 0 0 0 0 0 0 0 0 0 0 0 0 0 0 0 0 0 0 0 0 0 0
3 2 3 5 1 3 1 1 1 1 1 1 2 3 2 3 2 1 0 0 0 0 0 0 0 0 0 0 0 0 0 0 0 0 0 0 0 0 0 0 0 0 0 0 0 0 0
9 5 4 8 4 5 5 4 3 2 2 1 1 3 2 2 1 0 0 0 0 0 0 0 0 0 0 0 0 0 0 0 0 0 0 0 0 0 0 0 0 0 0 0 0 0 0
14 13 10 7 5 2 1 1 1 4 2 1 1 2 1 1 0 0 0 0 0 0 0 0 0 0 0 0 0 0 0 0 0 0 0 0 0 0 0 0 0 0 0 0 0 0 0
6 5 6 5 6 6 7 5 3 0 1 4 1 1 1 0 0 0 0 0 0 0 0 0 0 0 0 0 0 0 0 0 0 0 0 0 0 0 0 0 0 0 0 0 0 0 0
4 2 2 4 3 3 4 6 6 4 1 0 2 2 0 0 0 0 0 0 0 0 0 0 0 0 0 0 0 0 0 0 0 0 0 0 0 0 0 0 0 0 0 0 0 0 0
2 2 3 3 3 3 4 4 6 5 3 1 0 0 0 0 0 0 0 0 0 0 0 0 0 0 0 0 0 0 0 0 0 0 0 0 0 0 0 0 0 0 0 0 0 0 0
2 2 2 4 5 5 3 4 6 5 2 1 0 0 0 0 0 0 0 0 0 0 0 0 0 0 0 0 0 0 0 0 0 0 0 0 0 0 0 0 0 0 0 0 0 0 0
2 2 2 2 2 3 4 5 6 5 2 1 0 0 0 0 0 0 0 0 0 0 0 0 0 0 0 0 0 0 0 0 0 0 0 0 0 0 0 0 0 1 0 0 0 0 0
2 2 2 3 2 3 4 5 5 4 2 1 0 0 0 1 0 0 0 0 0 0 0 0 0 0 0 0 0 0 0 0 0 0 0 0 0 0 0 0 0 0 0 0 0 0 0
3 3 3 3 3 3 4 4 6 3 1 0 0 0 0 0 0 0 0 0 0 0 0 0 0 0 0 0 0 0 0 0 0 0 0 0 0 0 0 0 0 0 0 0 0 0 0
3 2 3 2 4 4 4 4 5 2 0 0 0 0 0 0 0 0 0 0 0 0 0 0 0 0 0 0 0 0 0 0 0 0 0 0 0 0 0 0 0 0 0 0 6 26 61
3 6 2 5 4 4 3 3 5 1 0 0 0 0 0 0 0 0 0 0 0 0 0 0 0 0 0 0 0 0 0 0 0 0 0 0 2 0 0 0 0 0 0 0 0 0 5
4 4 4 5 8 4 4 4 5 1 2 0 0 0 0 0 0 0 0 0 0 0 0 0 0 0 0 0 0 0 0 0 0 0 0 1 0 0 0 0 0 0 0 0 0 0 0
4 4 6 4 4 4 4 5 5 2 3 0 0 0 0 0 0 0 0 0 0 0 0 0 0 0 0 0 0 0 0 0 0 0 0 0 0 0 0 0 0 0 0 0 3 0 0
8 6 10 13 6 5 5 5 3 2 1 0 0 0 0 0 0 0 0 0 0 0 0 0 0 0 0 0 0 0 0 0 0 0 0 0 0 0 0 0 0 0 0 0 0 0 0
13 12 19 20 7 7 5 5 3 2 0 0 0 0 0 0 0 0 0 0 0 0 0 0 0 0 0 0 0 0 0 0 0 0 0 0 0 0 2 0 0 0 0 0 0 0 1
7 10 12 15 16 13 8 6 1 1 0 4 0 0 0 0 0 0 0 0 0 0 0 0 0 0 0 0 0 0 0 0 0 0 0 0 0 0 0 1 0 0 0 0 0 0 0
16 14 15 13 11 11 8 4 0 0 0 0 0 0 0 0 0 0 0 0 0 0 0 0 0 0 0 0 0 0 0 0 0 0 0 0 0 0 0 2 0 1 0 0 0 0 0
23 29 25 15 10 10 10 6 0 0 0 0 0 0 0 0 0 0 0 0 0 0 0 0 0 0 0 0 0 0 0 0 0 0 0 0 0 0 0 0 0 0 0 0 0 0 0
7 9 29 21 13 15 14 8 2 0 0 0 0 0 0 0 0 0 0 0 0 0 0 0 0 0 0 0 0 0 0 0 0 0 0 0 0 0 0 0 0 0 0 0 0 0 0
14 9 18 13 10 12 16 12 5 0 0 0 0 0 0 0 0 0 0 0 0 0 0 0 0 0 0 0 0 0 0 0 0 0 1 0 0 0 0 0 0 0 0 0 0 0 0
20 11 13 20 10 9 3 10 10 0 0 0 0 0 0 0 0 0 0 0 0 0 0 0 0 0 0 0 0 0 0 0 0 0 0 0 0 0 0 0 0 0 0 0 0 0 0
23 19 21 24 26 9 4 4 11 6 0 0 0 0 0 0 0 0 0 0 0 0 0 0 0 0 0 0 0 0 0 0 0 0 0 0 0 0 0 1 0 0 6 1 5 27 25
34 32 31 26 24 17 13 3 2 10 0 0 1 2 0 0 0 0 0 0 0 0 0 0 0 0 0 0 0 0 0 4 8 18 12 0 1 0 0 4 12 130 165 30 3 0 209
31 33 37 32 27 24 25 12 1 3 3 0 0 5 1 0 0 0 0 2 3 0 0 0 0 1 1 0 0 0 1 6 7 31 56 33 6 1 5 2 2 9 227 70 6 231 405
38 28 39 43 31 27 20 19 6 0 2 1 4 8 8 0 0 0 0 0 0 0 0 23 4 4 0 3 0 0 1 4 26 33 58 66 83 65 87 91 48 292 208 152 394 376 247
65 60 64 50 42 30 28 24 15 3 2 0 0 31 23 16 0 0 0 0 0 0 0 0 23 31 78 18 6 5 1 8 34 41 64 31 18 41 94 381 408 196 148 38 94 234 275
CIN
-0 -0 -0 -0 -0 -0 -0 -0 -0 -0 -0 -0 -0 -0 -0 -0 -0 -0 -0 -0 -0 -0 -0 -0 -0 -0 -0 -0 -0 -0 -513 -0 -0 -0 -0 -0 -0 -0 -0 -0 -0 -0 -0 -0 -0 -0 -0
-0 -0 -0 -0 -0 -0 -0 -0 -0 -0 -0 -0 -0 -0 -0 -0 -0 -0 -0 -0 -0 -0 -0 -0 -0 -0 -0 -0 -0 -0 -0 -0 -0 -0 -0 -0 -0 -0 -0 -0 -0 -0 -0 -0 -0 -0 -0
-0 -0 -0 -0 -0 -0 -0 -0 -0 -0 -0 -0 -0 -0 -0 -0 -0 -0 -0 -0 -0 -0 -0 -0 -0 -0 -0 -0 -0 -0 -0 -0 -0 -0 -0 -0 -0 -0 -0 -0 -0 -0 -0 -0 -0 -0 -0
-1 -0 -0 -0 -0 -0 -0 -0 -0 -0 -0 -0 -0 -0 -0 -0 -0 -0 -0 -0 -0 -0 -0 -0 -0 -0 -0 -0 -0 -0 -0 -0 -0 -0 -0 -0 -0 -0 -0 -0 -0 -0 -0 -0 -0 -0 -0
-0 -0 -0 -0 -0 -0 -0 -0 -0 -0 -0 -0 -0 -0 -0 -0 -0 -0 -0 -0 -0 -0 -0 -0 -0 -0 -0 -0 -0 -0 -0 -0 -0 -0 -0 -0 -0 -0 -0 -0 -0 -0 -0 -0 -0 -0 -0
-0 -0 -0 -0 -0 -0 -0 -0 -0 -0 -0 -0 -0 -0 -0 -0 -0 -0 -0 -0 -0 -0 -0 -0 -0 -0 -0 -0 -0 -0 -0 -0 -0 -0 -0 -0 -0 -0 -0 -0 -0 -0 -0 -0 -0 -0 -0
-0 -0 -0 -0 -0 -0 -0 -0 -0 -0 -0 -0 -0 -0 -0 -0 -0 -0 -0 -0 -0 -0 -0 -0 -0 -0 -0 -0 -0 -0 -0 -0 -0 -0 -0 -0 -0 -0 -0 -0 -0 -0 -0 -0 -0 -0 -0
-0 -0 -0 -0 -0 -0 -0 -0 -0 -0 -0 -0 -0 -0 -0 -0 -0 -0 -0 -0 -0 -0 -0 -0 -0 -0 -0 -0 -0 -0 -0 -0 -0 -0 -0 -0 -0 -0 -0 -0 -0 -0 -0 -0 -0 -0 -0
-0 -0 -0 -0 -0 -0 -0 -0 -0 -0 -0 -0 -0 -0 -0 -0 -0 -0 -0 -0 -0 -0 -0 -0 -0 -0 -0 -0 -0 -0 -0 -0 -0 -0 -0 -0 -0 -0 -0 -0 -0 -0 -0 -0 -0 -0 -0
-0 -0 -0 -0 -0 -0 -0 -0 -0 -0 -0 -0 -0 -0 -0 -0 -0 -0 -0 -0 -0 -0 -0 -0 -0 -0 -0 -0 -0 -0 -0 -0 -0 -0 -0 -0 -0 -0 -0 -0 -0 -0 -0 -0 -0 -0 -0
-0 -0 -0 -0 -0 -0 -0 -0 -0 -0 -0 -0 -0 -0 -0 -0 -0 -0 -0 -0 -0 -0 -0 -0 -0 -0 -0 -0 -0 -0 -0 -0 -0 -0 -0 -0 -0 -0 -0 -0 -0 -0 -0 -0 -0 -0 -0
-0 -0 -0 -0 -0 -0 -0 -0 -0 -0 -0 -0 -0 -0 -0 -0 -0 -0 -0 -0 -0 -0 -0 -0 -0 -0 -0 -0 -0 -0 -0 -0 -0 -0 -0 -0 -0 -0 -0 -0 -0 -0 -0 -0 -0 -0 -0
-0 -0 -0 -0 -0 -0 -0 -0 -0 -0 -0 -0 -0 -0 -0 -0 -0 -0 -0 -0 -0 -0 -0 -0 -0 -0 -0 -0 -0 -0 -0 -0 -0 -0 -0 -0 -0 -0 -0 -0 -0 -0 -0 -0 -0 -0 -0
-0 -0 -0 -0 -0 -0 -0 -0 -0 -0 -0 -0 -0 -0 -0 -0 -0 -0 -0 -0 -0 -0 -0 -0 -0 -0 -0 -0 -0 -0 -0 -0 -0 -0 -0 -0 -1 -0 -0 -0 -0 -0 -0 -0 -0 -0 -0
-0 -0 -0 -0 -0 -0 -0 -0 -0 -0 -0 -0 -0 -0 -0 -0 -0 -0 -0 -0 -0 -0 -0 -0 -0 -0 -0 -0 -0 -0 -0 -0 -0 -0 -0 -0 -0 -0 -0 -0 -0 -0 -0 -0 -0 -0 -0
-0 -0 -0 -0 -0 -0 -0 -0 -0 -0 -0 -0 -0 -0 -0 -0 -0 -0 -0 -0 -0 -0 -0 -0 -0 -0 -0 -0 -0 -0 -0 -0 -0 -0 -0 -0 -0 -0 -0 -0 -0 -0 -0 -0 -0 -0 -0
-0 -0 -0 -0 -0 -0 -0 -0 -0 -0 -0 -0 -0 -0 -0 -0 -0 -0 -0 -0 -0 -0 -0 -0 -0 -0 -0 -0 -0 -0 -0 -0 -0 -0 -0 -0 -0 -0 -0 -0 -0 -0 -0 -0 -0 -0 -0
-1 -1 -1 -1 -0 -0 -0 -0 -1 -0 -0 -0 -0 -0 -0 -0 -0 -0 -0 -0 -0 -0 -0 -0 -0 -0 -0 -0 -0 -0 -0 -0 -0 -0 -0 -0 -0 -0 -0 -0 -0 -0 -0 -0 -0 -0 -0
-6 -3 -3 -2 -1 -1 -0 -0 -1 -2 -0 -0 -0 -0 -0 -0 -0 -0 -0 -0 -0 -0 -0 -0 -0 -0 -0 -0 -0 -0 -0 -0 -0 -0 -0 -0 -0 -0 -0 -0 -0 -0 -0 -0 -0 -0 -0
-3 -3 -3 -4 -2 -1 -0 -1 -0 -0 -0 -0 -0 -0 -0 -0 -0 -0 -0 -0 -0 -0 -0 -0 -0 -0 -0 -0 -0 -0 -0 -0 -0 -0 -0 -0 -0 -0 -0 -2 -0 -0 -0 -0 -0 -0 -0
-5 -2 -2 -4 -4 -2 -1 -1 -0 -0 -0 -0 -0 -0 -0 -0 -0 -0 -0 -0 -0 -0 -0 -0 -0 -0 -0 -0 -0 -0 -0 -0 -0 -0 -0 -0 -0 -0 -0 -0 -0 -0 -0 -0 -0 -0 -0
-5 -6 -3 -1 -5 -2 -1 -1 -2 -0 -0 -0 -0 -0 -0 -0 -0 -0 -0 -0 -0 -0 -0 -0 -0 -0 -0 -0 -0 -0 -0 -0 -0 -0 -0 -0 -0 -0 -0 -0 -0 -0 -0 -0 -0 -0 -0
-3 -4 -3 -7 -5 -5 -2 -1 -2 -0 -0 -0 -0 -0 -0 -0 -0 -0 -0 -0 -0 -0 -0 -0 -0 -0 -0 -0 -0 -0 -0 -0 -0 -0 -0 -0 -0 -0 -0 -0 -0 -0 -0 -0 -0 -0 -0
-0 -0 -4 -3 -5 -4 -6 -3 -3 -1 -0 -0 -0 -0 -0 -0 -0 -0 -0 -0 -0 -0 -0 -0 -0 -0 -0 -0 -0 -0 -0 -0 -0 -0 -0 -0 -0 -0 -0 -0 -0 -0 -0 -0 -0 -0 -0
-0 -0 -0 -4 -4 -5 -7 -5 -3 -4 -0 -0 -0 -0 -0 -0 -0 -0 -0 -0 -0 -0 -0 -0 -0 -0 -0 -0 -0 -0 -0 -0 -0 -0 -0 -0 -0 -0 -0 -0 -0 -0 -3 -1 -0 -0 -0
-0 -0 -0 -1 -4 -7 -7 -8 -6 -5 -3 -0 -0 -0 -0 -0 -0 -0 -0 -0 -0 -0 -0 -0 -0 -0 -0 -0 -0 -0 -0 -0 -0 -0 -0 -0 -0 -0 -0 -0 -0 -0 -15 -3 -6 -0 -2
-0 -0 -0 -0 -7 -9 -7 -6 -11 -5 -11 -0 -0 -0 -0 -0 -0 -0 -0 -0 -0 -0 -0 -0 -0 -0 -0 -0 -0 -0 -0 -0 -0 -0 -1 -0 -0 -0 -0 -0 -0 -0 -1 -9 -2 -0 -0
-0 -0 -0 -0 -3 -7 -9 -9 -6 -3 -9 -0 -0 -0 -0 -0 -0 -0 -0 -0 -0 -0 -0 -2 -0 -0 -0 -0 -0 -0 -0 -0 -0 -0 -0 -0 -0 -0 -0 -0 -0 -4 -0 -0 -9 -11 -0
-0 -0 -0 -1 -2 -6 -8 -8 -7 -12 -12 -2 -0 -1 -0 -0 -0 -0 -0 -0 -0 -0 -0 -0 -1 -0 -0 -0 -0 -0 -0 -0 -0 -0 -0 -0 -0 -0 -0 -3 -4 -0 -16 -26 -23 -12 -0
Wind_Speed
15 16 16 16 17 18 19 20 20 21 22 22 23 23 23 22 22 21 19 17 14 11 9 9 9 7 7 11 7 9 12 11 15 17 14 13 11 12 13 6 3 11 8 6 8 8 6
16 16 17 18 19 20 21 22 23 24 24 23 24 23 23 23 22 21 19 16 13 9 6 7 8 7 9 7 6 12 14 16 15 15 14 11 9 8 13 7 8 11 8 9 4 4 2
16 17 17 17 20 20 22 23 23 25 25 26 25 25 24 23 22 22 20 17 14 4 6 8 10 7 11 9 7 11 15 13 11 11 9 10 10 10 3 10 2 9 12 8 5 2 5
13 15 17 16 19 19 21 23 23 24 26 26 26 26 25 23 22 21 19 16 10 1 6 8 9 11 4 3 7 10 8 7 9 8 11 5 8 12 8 6 11 13 13 11 10 5 6
16 17 16 17 18 19 20 21 22 23 25 26 27 27 27 25 23 19 17 13 6 3 3 8 9 10 9 4 10 12 9 9 8 7 6 2 11 14 6 13 13 8 8 2 9 1 4
18 19 19 20 21 20 21 21 22 23 23 25 27 28 28 26 24 20 16 8 3 4 8 10 10 9 11 11 8 8 10 5 7 8 9 10 9 11 12 13 7 6 6 8 4 7 6
18 19 20 20 21 22 22 21 23 24 24 24 25 27 28 27 27 21 14 6 8 9 12 9 5 3 11 9 7 10 11 9 8 8 13 11 12 13 3 8 7 6 6 7 2 3 9
18 19 20 20 21 22 22 23 23 24 24 25 25 26 28 28 27 24 9 6 8 7 8 5 4 5 3 3 9 11 13 12 8 14 4 8 14 10 3 5 6 8 9 7 3 3 8
18 19 20 21 21 22 22 23 24 24 25 25 25 26 28 28 28 13 6 7 7 6 9 8 6 9 13 11 9 13 16 13 10 7 10 14 14 3 7 6 9 9 9 8 10 6 14
18 19 20 21 22 23 23 23 24 25 26 27 26 26 26 33 7 7 1 7 8 2 8 12 10 7 8 10 7 14 15 5 5 6 3 9 9 4 6 2 9 7 5 6 11 12 12
18 19 20 21 22 23 24 24 25 26 26 26 27 26 25 10 13 5 8 9 7 6 8 14 12 11 14 12 15 11 10 8 12 6 10 5 8 8 9 5 6 11 10 11 13 14 15
17 19 20 21 22 24 24 25 25 27 28 28 28 26 25 4 9 6 9 9 7 9 4 9 9 12 14 13 10 12 10 10 6 6 8 3 2 6 5 1 6 8 13 15 16 13 14
17 18 19 20 22 23 24 25 25 27 29 30 30 28 16 9 6 10 9 8 9 10 4 10 12 12 17 11 12 11 16 14 11 10 15 9 11 6 7 11 11 12 13 10 7 12 1
16 17 19 20 21 23 24 26 26 28 29 31 32 31 5 10 9 9 9 10 10 6 2 4 2 9 12 9 10 11 13 15 11 9 11 9 13 12 5 5 10 10 9 9 10 11 10
16 17 18 19 20 22 24 26 26 28 29 31 34 8 7 6 3 7 9 10 11 3 6 5 9 12 15 5 9 11 14 14 7 8 11 8 8 8 3 1 5 2 10 10 12 17 11
16 17 18 19 20 21 23 25 26 29 31 30 9 10 8 3 5 8 9 14 7 6 6 7 13 11 13 14 12 11 12 4 4 6 7 5 9 14 11 6 10 11 10 10 11 6 11
14 15 16 17 20 22 23 24 25 28 33 33 7 7 8 4 6 8 11 5 2 4 7 10 11 10 12 8 7 12 7 9 3 6 9 13 7 5 7 13 13 9 11 7 8 8 10
12 13 14 15 18 20 22 23 23 27 35 12 7 7 5 4 10 8 10 4 4 9 8 10 9 12 8 7 9 13 5 2 5 10 9 1 8 11 13 10 3 11 15 14 9 10 8
12 12 13 14 15 16 19 20 21 20 20 9 7 8 4 7 9 9 7 8 8 7 9 7 9 10 7 7 8 7 4 10 3 8 7 2 8 12 15 17 12 6 10 9 9 10 13
11 11 10 10 13 15 17 20 21 21 19 9 7 5 7 7 8 10 9 8 10 5 10 7 9 1 9 12 6 5 7 8 4 2 8 4 11 13 14 18 14 8 10 11 13 11 14
13 12 11 9 9 13 15 18 20 23 23 7 6 1 7 3 3 7 5 8 9 9 11 5 9 12 12 12 12 11 11 11 8 8 6 7 12 13 15 16 17 18 19 19 19 18 18
12 14 13 10 9 10 13 16 19 23 30 7 6 5 4 10 6 9 5 10 11 10 2 10 11 12 9 11 11 11 12 9 10 14 9 10 9 10 16 18 18 21 22 21 21 20 21
11 12 13 11 10 10 11 13 16 19 22 6 6 6 6 3 9 10 10 9 7 8 3 10 7 8 10 7 7 10 8 9 4 7 8 9 9 11 15 14 15 14 18 19 16 16 15
10 11 12 12 10 9 8 9 12 13 15 8 6 8 8 10 8 8 6 6 8 7 10 3 2 11 6 7 5 9 15 14 13 11 11 12 11 10 14 14 18 17 4 7 7 9 8
11 11 12 12 10 8 8 7 8 10 12 10 2 5 6 9 10 6 8 8 10 6 9 14 11 7 7 9 9 13 13 16 17 16 16 14 11 13 14 13 14 17 15 8 6 7 11
12 12 12 11 11 8 7 7 6 6 11 11 5 2 5 8 3 10 7 9 11 10 12 14 12 7 9 11 12 17 14 15 16 21 10 10 10 12 13 15 14 5 6 6 3 10 11
12 11 11 11 11 9 8 6 5 5 6 9 5 5 5 9 11 6 8 9 6 8 10 10 3 12 9 11 13 15 16 18 19 15 11 11 11 13 12 12 14 8 10 4 8 4 5
12 12 12 11 10 10 8 7 6 5 3 8 6 4 8 7 12 12 13 11 9 9 9 10 5 7 10 12 13 14 15 15 17 18 14 14 13 13 15 15 18 9 5 7 7 6 8
13 12 11 10 10 9 9 8 6 6 4 6 7 5 3 8 13 15 15 15 15 18 12 9 13 10 5 8 10 12 13 14 15 13 15 16 15 11 11 5 2 3 3 3 6 6 7
Wind_Direction
12 10 7 1 356 352 352 350 349 345 343 342 339 337 335 334 332 331 327 323 313 293 270 248 236 226 227 213 69 79 145 157 178 214 212 212 226 243 264 293 304 253 285 324 296 300 325
12 10 9 4 0 357 355 353 350 348 345 341 337 336 335 334 332 331 329 328 317 292 246 217 204 190 245 238 111 136 135 160 180 206 207 226 246 264 294 295 285 338 303 292 270 115 151
11 10 7 3 0 356 355 353 350 348 344 341 337 335 334 334 331 331 330 329 322 276 205 195 191 230 255 72 139 140 156 176 184 222 209 227 261 237 319 250 294 276 263 195 193 80 126
1 5 5 1 359 356 355 352 350 346 343 341 337 333 332 332 332 331 327 325 317 216 181 194 197 244 52 120 150 171 197 182 181 224 271 202 248 271 278 316 250 242 226 193 127 280 116
6 3 1 0 356 352 350 348 347 345 342 340 337 333 330 330 331 328 320 317 284 211 210 183 220 234 133 135 194 191 206 181 187 199 206 221 248 249 207 237 227 203 248 357 129 137 308
4 0 357 355 354 353 350 347 343 342 340 338 336 332 329 328 328 326 312 277 338 224 213 217 263 254 158 199 149 175 193 237 195 166 180 221 228 231 220 236 329 43 316 154 272 136 230
1 1 0 357 355 353 349 345 343 339 337 337 334 329 326 326 326 323 309 197 205 191 217 309 140 338 130 129 159 201 184 211 210 220 235 197 234 223 56 14 347 326 289 285 152 77 278
4 2 360 356 355 353 351 348 343 339 335 333 331 327 327 325 323 312 280 4 37 339 282 187 223 251 191 234 190 177 185 211 204 233 195 200 234 51 317 293 269 255 265 240 191 115 276
6 3 0 358 355 353 350 345 341 340 335 333 331 330 327 323 319 290 18 23 328 310 253 147 191 193 177 204 206 167 198 224 226 228 219 268 68 92 242 199 246 215 306 17 317 311 251
4 2 359 357 354 352 349 345 340 338 335 332 331 329 326 323 299 357 134 347 313 317 265 141 178 157 182 226 213 155 210 246 218 285 197 252 98 259 254 284 305 307 67 294 283 287 294
1 -0 358 356 354 351 349 345 340 337 333 330 328 327 323 327 314 311 346 318 317 235 266 150 130 127 163 219 125 189 195 215 261 177 246 112 190 214 253 33 323 328 336 298 286 277 274
0 359 357 356 354 351 349 345 341 336 332 329 325 324 328 201 223 319 312 310 246 232 228 149 144 184 185 210 189 138 191 236 307 231 233 333 359 262 340 205 272 313 277 261 246 251 244
359 358 357 355 354 351 349 345 341 336 331 328 324 317 313 304 326 335 312 255 236 253 134 144 188 182 202 177 175 190 198 201 222 211 213 176 209 133 261 245 194 246 292 287 235 211 295
357 357 356 355 353 352 349 346 342 337 332 327 322 311 211 263 297 291 285 255 258 331 144 41 256 204 225 170 220 203 226 225 217 282 284 234 180 183 155 295 338 308 318 295 302 301 324
355 355 355 353 352 351 349 346 341 337 333 330 313 264 235 191 280 279 267 240 244 313 25 253 185 236 212 183 273 214 225 235 215 208 267 310 220 130 172 233 279 76 257 18 298 257 248
352 354 354 354 354 352 350 347 343 340 335 332 309 281 252 134 269 258 253 259 311 327 309 259 257 213 237 192 198 215 196 229 196 267 273 332 281 193 145 240 210 274 341 271 223 286 281
348 350 351 351 354 353 351 350 346 344 336 321 260 260 102 222 245 240 246 261 229 153 281 253 257 269 254 267 227 252 221 121 246 178 277 286 223 261 132 222 250 185 232 206 302 301 299
336 339 340 342 348 351 351 350 348 351 339 330 288 252 104 247 240 228 258 222 2 257 211 258 270 291 265 244 252 254 254 241 94 288 245 101 287 261 243 113 312 273 280 288 281 295 279
311 323 334 339 338 343 346 347 347 351 360 317 291 289 151 245 253 227 200 258 244 240 237 231 240 242 242 263 254 282 250 77 169 250 7 321 243 259 237 236 178 241 270 239 263 275 265
296 297 308 325 336 341 343 344 345 343 343 310 275 267 175 214 273 285 302 230 206 211 280 270 278 275 245 246 206 252 245 142 226 323 38 309 273 273 288 319 319 271 232 251 267 270 283
325 318 310 314 329 338 341 344 343 339 334 293 244 28 10 277 169 304 296 300 243 206 221 222 232 244 233 240 236 219 229 149 196 130 236 252 270 280 285 291 290 287 283 279 271 267 270
308 317 318 311 318 336 341 344 345 341 330 250 309 338 4 285 278 270 202 239 250 256 279 228 239 261 240 258 250 247 244 236 235 162 231 237 262 281 279 276 272 271 271 271 269 269 273
300 308 320 310 313 319 339 348 348 349 335 313 18 267 267 293 242 245 253 231 238 279 254 281 328 312 238 310 325 337 316 306 285 282 258 255 278 280 276 287 280 276 265 261 255 262 280
291 303 307 316 305 311 324 346 349 353 350 322 353 290 273 262 247 265 289 271 273 256 280 292 212 266 30 318 274 262 268 262 241 247 242 254 250 267 273 272 265 258 22 304 314 306 287
287 290 300 310 304 298 305 329 350 345 343 302 299 298 298 274 290 275 265 260 270 240 246 261 261 311 343 290 262 246 244 243 251 246 236 240 261 260 255 253 261 265 201 211 275 295 328
278 279 283 297 303 301 295 296 330 352 340 295 316 306 282 294 277 344 303 293 281 256 243 239 240 271 277 267 242 241 248 251 242 226 200 259 240 265 263 267 265 54 88 57 13 270 53
271 276 278 280 292 294 296 287 289 336 348 308 310 228 267 280 277 293 276 331 309 278 277 297 264 238 209 250 245 248 247 234 251 244 167 211 228 244 240 255 266 286 122 152 260 59 357
260 266 271 271 276 286 297 278 275 289 331 308 320 335 293 285 300 293 294 293 271 250 271 33 268 214 262 229 249 253 256 257 254 243 243 231 224 228 233 249 257 104 171 256 43 322 306
250 254 260 268 267 274 279 274 255 258 256 295 269 78 337 256 295 318 295 290 278 280 295 288 291 306 322 263 237 254 258 257 262 251 205 240 261 285 296 32 36 38 23 357 336 322 305